User: anonymous   Login
Location: Kailua
(21.4020°N, 157.7390°W)
Time: 17:45:11
(UTC-10:00)
Language:

Cosmos 2221 Rocket - Orbit

View from above orbital plane
View from above orbital plane
View from above satellite
View from above satellite

Ground track
Ground track

The orbit data is extracted from the following two-line orbital elements,

1 22237U 92080B   17176.54582549 +.00000028 +00000-0 +62210-6 0  9996
2 22237 082.5129 109.9535 0019815 173.7220 305.8403 14.78318365324674
Epoch (UTC): 25 June 2017 13:05:59
Eccentricity: 0.0019815
inclination: 82.5129°
perigee height: 621 km
apogee height: 648 km
right ascension of ascending node: 109.9535°
argument of perigee: 173.7220°
revolutions per day: 14.78318365
mean anomaly at epoch: 305.8403°
orbit number at epoch: 32467

The dashed part of the orbit path shows where the satellite is in the earth's shadow,  

DLR